owner,sensor,date,latitude,longitude,vertical_datum,sea_water_temperature,qcFlag 
TABS,ioos:station:wmo:42047:1,2013-04-01T00:00:00Z,27.8966,-93.5973,-2.0,21.74,11111222 
TABS,ioos:station:wmo:42047:1,2013-04-01T00:30:00Z,27.8966,-93.5973,-2.0,21.72,11111222 
TABS,ioos:station:wmo:42047:1,2013-04-01T01:00:00Z,27.8966,-93.5973,-2.0,21.69,11111222 
TABS,ioos:station:wmo:42047:1,2013-04-01T01:30:00Z,27.8966,-93.5973,-2.0,21.67,11111222 
TABS,ioos:station:wmo:42047:1,2013-04-01T02:00:00Z,27.8966,-93.5973,-2.0,21.68,11111222 
TABS,ioos:station:wmo:42047:1,2013-04-01T02:30:00Z,27.8966,-93.5973,-2.0,21.68,11111222 
TABS,ioos:station:wmo:42047:1,2013-04-01T03:00:00Z,27.8966,-93.5973,-2.0,21.67,11111222 
TABS,ioos:station:wmo:42047:1,2013-04-01T03:30:00Z,27.8966,-93.5973,-2.0,21.68,11111222 
TABS,ioos:station:wmo:42047:1,2013-04-01T04:00:00Z,27.8966,-93.5973,-2.0,21.68,11111222 
TABS,ioos:station:wmo:42047:1,2013-04-01T04:30:00Z,27.8966,-93.5973,-2.0,21.67,11111222 
TABS,ioos:station:wmo:42047:1,2013-04-01T05:00:00Z,27.8966,-93.5973,-2.0,21.65,11111222 
TABS,ioos:station:wmo:42047:1,2013-04-01T05:30:00Z,27.8966,-93.5973,-2.0,21.64,11111222 
TABS,ioos:station:wmo:42047:1,2013-04-01T06:00:00Z,27.8966,-93.5973,-2.0,21.62,11111222 
TABS,ioos:station:wmo:42047:1,2013-04-01T06:30:00Z,27.8966,-93.5973,-2.0,21.6,11111222 
TABS,ioos:station:wmo:42047:1,2013-04-01T07:00:00Z,27.8966,-93.5973,-2.0,21.58,11111222 
TABS,ioos:station:wmo:42047:1,2013-04-01T07:30:00Z,27.8966,-93.5973,-2.0,21.56,11111222 
TABS,ioos:station:wmo:42047:1,2013-04-01T08:00:00Z,27.8966,-93.5973,-2.0,21.54,11111222 
TABS,ioos:station:wmo:42047:1,2013-04-01T08:30:00Z,27.8966,-93.5973,-2.0,21.52,11111222 
TABS,ioos:station:wmo:42047:1,2013-04-01T09:00:00Z,27.8966,-93.5973,-2.0,21.52,11111222 
TABS,ioos:station:wmo:42047:1,2013-04-01T09:30:00Z,27.8966,-93.5973,-2.0,21.53,11111222 
TABS,ioos:station:wmo:42047:1,2013-04-01T10:00:00Z,27.8966,-93.5973,-2.0,21.56,11111222 
TABS,ioos:station:wmo:42047:1,2013-04-01T10:30:00Z,27.8966,-93.5973,-2.0,21.56,11111222 
TABS,ioos:station:wmo:42047:1,2013-04-01T11:00:00Z,27.8966,-93.5973,-2.0,21.54,11111222 
TABS,ioos:station:wmo:42047:1,2013-04-01T11:30:00Z,27.8966,-93.5973,-2.0,21.52,11111222 
TABS,ioos:station:wmo:42047:1,2013-04-01T12:00:00Z,27.8966,-93.5973,-2.0,21.52,11111222 
TABS,ioos:station:wmo:42047:1,2013-04-01T12:30:00Z,27.8966,-93.5973,-2.0,21.49,11111222 
TABS,ioos:station:wmo:42047:1,2013-04-01T13:00:00Z,27.8966,-93.5973,-2.0,21.45,11111222 
TABS,ioos:station:wmo:42047:1,2013-04-01T13:30:00Z,27.8966,-93.5973,-2.0,21.45,11111222 
TABS,ioos:station:wmo:42047:1,2013-04-01T14:00:00Z,27.8966,-93.5973,-2.0,21.52,11111222 
TABS,ioos:station:wmo:42047:1,2013-04-01T14:30:00Z,27.8966,-93.5973,-2.0,21.56,11111222 
TABS,ioos:station:wmo:42047:1,2013-04-01T15:00:00Z,27.8966,-93.5973,-2.0,21.56,11111222 
TABS,ioos:station:wmo:42047:1,2013-04-01T15:30:00Z,27.8966,-93.5973,-2.0,21.57,11111222 
TABS,ioos:station:wmo:42047:1,2013-04-01T16:00:00Z,27.8966,-93.5973,-2.0,21.59,11111222 
TABS,ioos:station:wmo:42047:1,2013-04-01T16:30:00Z,27.8966,-93.5973,-2.0,21.61,11111222 
TABS,ioos:station:wmo:42047:1,2013-04-01T17:00:00Z,27.8966,-93.5973,-2.0,21.62,11111222 
TABS,ioos:station:wmo:42047:1,2013-04-01T17:30:00Z,27.8966,-93.5973,-2.0,21.63,11111222 
TABS,ioos:station:wmo:42047:1,2013-04-01T18:00:00Z,27.8966,-93.5973,-2.0,21.64,11111222 
TABS,ioos:station:wmo:42047:1,2013-04-01T18:30:00Z,27.8966,-93.5973,-2.0,21.65,11111222 
TABS,ioos:station:wmo:42047:1,2013-04-01T19:00:00Z,27.8966,-93.5973,-2.0,21.66,11111222 
TABS,ioos:station:wmo:42047:1,2013-04-01T19:30:00Z,27.8966,-93.5973,-2.0,21.68,11111222 
TABS,ioos:station:wmo:42047:1,2013-04-01T20:00:00Z,27.8966,-93.5973,-2.0,21.71,11111222 
TABS,ioos:station:wmo:42047:1,2013-04-01T20:30:00Z,27.8966,-93.5973,-2.0,21.71,11111222 
TABS,ioos:station:wmo:42047:1,2013-04-01T21:00:00Z,27.8966,-93.5973,-2.0,21.72,11111222 
TABS,ioos:station:wmo:42047:1,2013-04-01T21:30:00Z,27.8966,-93.5973,-2.0,21.71,11111222 
TABS,ioos:station:wmo:42047:1,2013-04-01T22:00:00Z,27.8966,-93.5973,-2.0,21.71,11111222 
TABS,ioos:station:wmo:42047:1,2013-04-01T22:30:00Z,27.8966,-93.5973,-2.0,21.74,11111222 
TABS,ioos:station:wmo:42047:1,2013-04-01T23:00:00Z,27.8966,-93.5973,-2.0,21.76,11111222 
TABS,ioos:station:wmo:42047:1,2013-04-01T23:30:00Z,27.8966,-93.5973,-2.0,21.77,11111222 
TABS,ioos:station:wmo:42047:1,2013-04-02T11:00:00Z,27.8966,-93.5973,-2.0,21.85,2 
TABS,ioos:station:wmo:42047:1,2013-04-02T11:30:00Z,27.8966,-93.5973,-2.0,21.85,2 
TABS,ioos:station:wmo:42047:1,2013-04-02T12:00:00Z,27.8966,-93.5973,-2.0,21.85,2 
TABS,ioos:station:wmo:42047:1,2013-04-02T12:30:00Z,27.8966,-93.5973,-2.0,21.85,2 
TABS,ioos:station:wmo:42047:1,2013-04-02T13:00:00Z,27.8966,-93.5973,-2.0,21.85,2 
TABS,ioos:station:wmo:42047:1,2013-04-02T13:30:00Z,27.8966,-93.5973,-2.0,21.86,2 
TABS,ioos:station:wmo:42047:1,2013-04-02T14:00:00Z,27.8966,-93.5973,-2.0,21.86,2 
TABS,ioos:station:wmo:42047:1,2013-04-02T14:30:00Z,27.8966,-93.5973,-2.0,21.86,2 
TABS,ioos:station:wmo:42047:1,2013-04-02T15:00:00Z,27.8966,-93.5973,-2.0,21.87,2 
TABS,ioos:station:wmo:42047:1,2013-04-02T15:30:00Z,27.8966,-93.5973,-2.0,21.87,2 
TABS,ioos:station:wmo:42047:1,2013-04-02T16:00:00Z,27.8966,-93.5973,-2.0,21.88,2 
TABS,ioos:station:wmo:42047:1,2013-04-02T16:30:00Z,27.8966,-93.5973,-2.0,21.89,2 
TABS,ioos:station:wmo:42047:1,2013-04-02T17:00:00Z,27.8966,-93.5973,-2.0,21.9,2 
TABS,ioos:station:wmo:42047:1,2013-04-02T17:30:00Z,27.8966,-93.5973,-2.0,21.92,2 
TABS,ioos:station:wmo:42047:1,2013-04-02T18:00:00Z,27.8966,-93.5973,-2.0,21.93,2 
TABS,ioos:station:wmo:42047:1,2013-04-02T18:30:00Z,27.8966,-93.5973,-2.0,21.95,2 
TABS,ioos:station:wmo:42047:1,2013-04-02T19:00:00Z,27.8966,-93.5973,-2.0,21.97,2 
TABS,ioos:station:wmo:42047:1,2013-04-02T19:30:00Z,27.8966,-93.5973,-2.0,21.96,2 
TABS,ioos:station:wmo:42047:1,2013-04-02T20:00:00Z,27.8966,-93.5973,-2.0,21.95,2 
TABS,ioos:station:wmo:42047:1,2013-04-02T20:30:00Z,27.8966,-93.5973,-2.0,21.91,2 
TABS,ioos:station:wmo:42047:1,2013-04-02T21:00:00Z,27.8966,-93.5973,-2.0,21.9,2 
TABS,ioos:station:wmo:42047:1,2013-04-02T21:30:00Z,27.8966,-93.5973,-2.0,21.92,2 
TABS,ioos:station:wmo:42047:1,2013-04-02T22:00:00Z,27.8966,-93.5973,-2.0,21.93,2 
TABS,ioos:station:wmo:42047:1,2013-04-02T22:30:00Z,27.8966,-93.5973,-2.0,21.94,2 
TABS,ioos:station:wmo:42047:1,2013-04-02T23:00:00Z,27.8966,-93.5973,-2.0,21.94,2 
TABS,ioos:station:wmo:42047:1,2013-04-02T23:30:00Z,27.8966,-93.5973,-2.0,21.94,2 
TABS,ioos:station:wmo:42047:1,2013-04-03T00:00:00Z,27.8966,-93.5973,-2.0,21.95,11111222 
TABS,ioos:station:wmo:42047:1,2013-04-03T00:30:00Z,27.8966,-93.5973,-2.0,21.95,11111222 
TABS,ioos:station:wmo:42047:1,2013-04-03T01:00:00Z,27.8966,-93.5973,-2.0,22.06,11111222 
TABS,ioos:station:wmo:42047:1,2013-04-03T01:30:00Z,27.8966,-93.5973,-2.0,22.21,11111222 
TABS,ioos:station:wmo:42047:1,2013-04-03T02:00:00Z,27.8966,-93.5973,-2.0,22.29,11111222 
TABS,ioos:station:wmo:42047:1,2013-04-03T02:30:00Z,27.8966,-93.5973,-2.0,22.33,11111222 
TABS,ioos:station:wmo:42047:1,2013-04-03T03:00:00Z,27.8966,-93.5973,-2.0,22.46,11111222 
TABS,ioos:station:wmo:42047:1,2013-04-03T03:30:00Z,27.8966,-93.5973,-2.0,22.59,11111222 
TABS,ioos:station:wmo:42047:1,2013-04-03T04:00:00Z,27.8966,-93.5973,-2.0,22.65,11111222 
TABS,ioos:station:wmo:42047:1,2013-04-03T04:30:00Z,27.8966,-93.5973,-2.0,22.69,11111222 
TABS,ioos:station:wmo:42047:1,2013-04-03T05:00:00Z,27.8966,-93.5973,-2.0,22.71,11111222 
TABS,ioos:station:wmo:42047:1,2013-04-03T05:30:00Z,27.8966,-93.5973,-2.0,22.71,11111222 
TABS,ioos:station:wmo:42047:1,2013-04-03T06:00:00Z,27.8966,-93.5973,-2.0,22.7,11111222 
TABS,ioos:station:wmo:42047:1,2013-04-03T06:30:00Z,27.8966,-93.5973,-2.0,22.72,11111222 
TABS,ioos:station:wmo:42047:1,2013-04-03T07:00:00Z,27.8966,-93.5973,-2.0,22.73,11111222 
TABS,ioos:station:wmo:42047:1,2013-04-03T07:30:00Z,27.8966,-93.5973,-2.0,22.76,11111222 
TABS,ioos:station:wmo:42047:1,2013-04-03T08:00:00Z,27.8966,-93.5973,-2.0,22.77,11111222 
TABS,ioos:station:wmo:42047:1,2013-04-03T08:30:00Z,27.8966,-93.5973,-2.0,22.79,11111222 
TABS,ioos:station:wmo:42047:1,2013-04-03T09:00:00Z,27.8966,-93.5973,-2.0,22.79,11111222 
TABS,ioos:station:wmo:42047:1,2013-04-03T09:30:00Z,27.8966,-93.5973,-2.0,22.81,11111222 
TABS,ioos:station:wmo:42047:1,2013-04-03T10:00:00Z,27.8966,-93.5973,-2.0,22.81,11111222 
TABS,ioos:station:wmo:42047:1,2013-04-03T10:30:00Z,27.8966,-93.5973,-2.0,22.8,11111222 
TABS,ioos:station:wmo:42047:1,2013-04-03T11:00:00Z,27.8966,-93.5973,-2.0,22.76,11111222 
TABS,ioos:station:wmo:42047:1,2013-04-03T11:30:00Z,27.8966,-93.5973,-2.0,22.71,11111222 
TABS,ioos:station:wmo:42047:1,2013-04-03T12:00:00Z,27.8966,-93.5973,-2.0,22.69,11111222 
TABS,ioos:station:wmo:42047:1,2013-04-03T12:30:00Z,27.8966,-93.5973,-2.0,22.69,11111222 
TABS,ioos:station:wmo:42047:1,2013-04-03T13:00:00Z,27.8966,-93.5973,-2.0,22.69,11111222 
TABS,ioos:station:wmo:42047:1,2013-04-03T13:30:00Z,27.8966,-93.5973,-2.0,22.68,11111222 
TABS,ioos:station:wmo:42047:1,2013-04-03T14:00:00Z,27.8966,-93.5973,-2.0,22.69,11111222 
TABS,ioos:station:wmo:42047:1,2013-04-03T14:30:00Z,27.8966,-93.5973,-2.0,22.71,11111222 
TABS,ioos:station:wmo:42047:1,2013-04-03T15:00:00Z,27.8966,-93.5973,-2.0,22.73,11111222 
TABS,ioos:station:wmo:42047:1,2013-04-03T15:30:00Z,27.8966,-93.5973,-2.0,22.76,11111222 
TABS,ioos:station:wmo:42047:1,2013-04-03T16:00:00Z,27.8966,-93.5973,-2.0,22.8,11111222 
TABS,ioos:station:wmo:42047:1,2013-04-03T16:30:00Z,27.8966,-93.5973,-2.0,22.85,11111222 
TABS,ioos:station:wmo:42047:1,2013-04-03T17:00:00Z,27.8966,-93.5973,-2.0,22.88,11111222 
TABS,ioos:station:wmo:42047:1,2013-04-03T17:30:00Z,27.8966,-93.5973,-2.0,22.95,11111222 
TABS,ioos:station:wmo:42047:1,2013-04-03T18:00:00Z,27.8966,-93.5973,-2.0,22.98,11111222 
TABS,ioos:station:wmo:42047:1,2013-04-03T18:30:00Z,27.8966,-93.5973,-2.0,22.97,11111222 
TABS,ioos:station:wmo:42047:1,2013-04-03T19:00:00Z,27.8966,-93.5973,-2.0,22.93,11111222 
TABS,ioos:station:wmo:42047:1,2013-04-03T19:30:00Z,27.8966,-93.5973,-2.0,22.89,11111222 
TABS,ioos:station:wmo:42047:1,2013-04-03T20:00:00Z,27.8966,-93.5973,-2.0,22.88,11111222 
TABS,ioos:station:wmo:42047:1,2013-04-03T20:30:00Z,27.8966,-93.5973,-2.0,22.84,11111222 
TABS,ioos:station:wmo:42047:1,2013-04-03T21:00:00Z,27.8966,-93.5973,-2.0,22.82,11111222 
TABS,ioos:station:wmo:42047:1,2013-04-03T21:30:00Z,27.8966,-93.5973,-2.0,22.8,11111222 
TABS,ioos:station:wmo:42047:1,2013-04-03T22:00:00Z,27.8966,-93.5973,-2.0,22.78,11111222 
TABS,ioos:station:wmo:42047:1,2013-04-03T22:30:00Z,27.8966,-93.5973,-2.0,22.77,11111222 
TABS,ioos:station:wmo:42047:1,2013-04-03T23:00:00Z,27.8966,-93.5973,-2.0,22.77,11111222 
TABS,ioos:station:wmo:42047:1,2013-04-03T23:30:00Z,27.8966,-93.5973,-2.0,22.74,11111222 
TABS,ioos:station:wmo:42047:1,2013-04-04T00:00:00Z,27.8966,-93.5973,-2.0,22.72,11111222 
TABS,ioos:station:wmo:42047:1,2013-04-04T00:30:00Z,27.8966,-93.5973,-2.0,22.7,11111222 
TABS,ioos:station:wmo:42047:1,2013-04-04T01:00:00Z,27.8966,-93.5973,-2.0,22.68,11111222 
TABS,ioos:station:wmo:42047:1,2013-04-04T01:30:00Z,27.8966,-93.5973,-2.0,22.65,11111222 
TABS,ioos:station:wmo:42047:1,2013-04-04T02:00:00Z,27.8966,-93.5973,-2.0,22.63,11111222 
TABS,ioos:station:wmo:42047:1,2013-04-04T02:30:00Z,27.8966,-93.5973,-2.0,22.62,11111222 
TABS,ioos:station:wmo:42047:1,2013-04-04T03:00:00Z,27.8966,-93.5973,-2.0,22.57,11111222 
TABS,ioos:station:wmo:42047:1,2013-04-04T03:30:00Z,27.8966,-93.5973,-2.0,22.55,11111222 
TABS,ioos:station:wmo:42047:1,2013-04-04T04:00:00Z,27.8966,-93.5973,-2.0,22.53,11111222 
TABS,ioos:station:wmo:42047:1,2013-04-04T04:30:00Z,27.8966,-93.5973,-2.0,22.52,11111222 
TABS,ioos:station:wmo:42047:1,2013-04-04T05:00:00Z,27.8966,-93.5973,-2.0,22.51,11111222 
TABS,ioos:station:wmo:42047:1,2013-04-04T05:30:00Z,27.8966,-93.5973,-2.0,22.51,11111222 
TABS,ioos:station:wmo:42047:1,2013-04-04T06:00:00Z,27.8966,-93.5973,-2.0,22.51,11111222 
TABS,ioos:station:wmo:42047:1,2013-04-04T06:30:00Z,27.8966,-93.5973,-2.0,22.51,11111222 
TABS,ioos:station:wmo:42047:1,2013-04-04T07:00:00Z,27.8966,-93.5973,-2.0,22.52,11111222 
TABS,ioos:station:wmo:42047:1,2013-04-04T07:30:00Z,27.8966,-93.5973,-2.0,22.52,11111222 
TABS,ioos:station:wmo:42047:1,2013-04-04T08:00:00Z,27.8966,-93.5973,-2.0,22.51,11111222 
TABS,ioos:station:wmo:42047:1,2013-04-04T08:30:00Z,27.8966,-93.5973,-2.0,22.54,11111222 
TABS,ioos:station:wmo:42047:1,2013-04-04T09:00:00Z,27.8966,-93.5973,-2.0,22.57,11111222 
TABS,ioos:station:wmo:42047:1,2013-04-04T09:30:00Z,27.8966,-93.5973,-2.0,22.59,11111222 
TABS,ioos:station:wmo:42047:1,2013-04-04T10:00:00Z,27.8966,-93.5973,-2.0,22.58,11111222 
TABS,ioos:station:wmo:42047:1,2013-04-04T10:30:00Z,27.8966,-93.5973,-2.0,22.58,11111222 
TABS,ioos:station:wmo:42047:1,2013-04-04T11:00:00Z,27.8966,-93.5973,-2.0,22.57,11111222 
TABS,ioos:station:wmo:42047:1,2013-04-04T11:30:00Z,27.8966,-93.5973,-2.0,22.54,11111222 
TABS,ioos:station:wmo:42047:1,2013-04-04T12:00:00Z,27.8966,-93.5973,-2.0,22.51,11111222 
TABS,ioos:station:wmo:42047:1,2013-04-04T12:30:00Z,27.8966,-93.5973,-2.0,22.48,11111222 
TABS,ioos:station:wmo:42047:1,2013-04-04T13:00:00Z,27.8966,-93.5973,-2.0,22.52,11111222 
TABS,ioos:station:wmo:42047:1,2013-04-04T13:30:00Z,27.8966,-93.5973,-2.0,22.54,11111222 
TABS,ioos:station:wmo:42047:1,2013-04-04T14:00:00Z,27.8966,-93.5973,-2.0,22.53,11111222 
TABS,ioos:station:wmo:42047:1,2013-04-04T14:30:00Z,27.8966,-93.5973,-2.0,22.54,11111222 
TABS,ioos:station:wmo:42047:1,2013-04-04T15:00:00Z,27.8966,-93.5973,-2.0,22.54,11111222 
TABS,ioos:station:wmo:42047:1,2013-04-04T15:30:00Z,27.8966,-93.5973,-2.0,22.53,11111222 
TABS,ioos:station:wmo:42047:1,2013-04-04T16:00:00Z,27.8966,-93.5973,-2.0,22.52,11111222 
TABS,ioos:station:wmo:42047:1,2013-04-04T16:30:00Z,27.8966,-93.5973,-2.0,22.52,11111222 
TABS,ioos:station:wmo:42047:1,2013-04-04T17:00:00Z,27.8966,-93.5973,-2.0,22.52,11111222 
TABS,ioos:station:wmo:42047:1,2013-04-04T17:30:00Z,27.8966,-93.5973,-2.0,22.51,11111222 
TABS,ioos:station:wmo:42047:1,2013-04-04T18:00:00Z,27.8966,-93.5973,-2.0,22.5,11111222 
TABS,ioos:station:wmo:42047:1,2013-04-04T18:30:00Z,27.8966,-93.5973,-2.0,22.5,11111222 
TABS,ioos:station:wmo:42047:1,2013-04-04T19:00:00Z,27.8966,-93.5973,-2.0,22.5,11111222 
TABS,ioos:station:wmo:42047:1,2013-04-04T19:30:00Z,27.8966,-93.5973,-2.0,22.5,11111222 
TABS,ioos:station:wmo:42047:1,2013-04-04T20:00:00Z,27.8966,-93.5973,-2.0,22.5,11111222 
TABS,ioos:station:wmo:42047:1,2013-04-04T20:30:00Z,27.8966,-93.5973,-2.0,22.49,11111222 
TABS,ioos:station:wmo:42047:1,2013-04-04T21:00:00Z,27.8966,-93.5973,-2.0,22.48,11111222 
TABS,ioos:station:wmo:42047:1,2013-04-04T21:30:00Z,27.8966,-93.5973,-2.0,22.48,11111222 
TABS,ioos:station:wmo:42047:1,2013-04-04T22:00:00Z,27.8966,-93.5973,-2.0,22.47,11111222 
TABS,ioos:station:wmo:42047:1,2013-04-04T22:30:00Z,27.8966,-93.5973,-2.0,22.45,11111222 
TABS,ioos:station:wmo:42047:1,2013-04-04T23:00:00Z,27.8966,-93.5973,-2.0,22.44,11111222 
TABS,ioos:station:wmo:42047:1,2013-04-04T23:30:00Z,27.8966,-93.5973,-2.0,22.41,11111222 
TABS,ioos:station:wmo:42047:1,2013-04-05T00:00:00Z,27.8966,-93.5973,-2.0,22.37,11111222 
TABS,ioos:station:wmo:42047:1,2013-04-05T00:30:00Z,27.8966,-93.5973,-2.0,22.35,11111222 
TABS,ioos:station:wmo:42047:1,2013-04-05T01:00:00Z,27.8966,-93.5973,-2.0,22.34,11111222 
TABS,ioos:station:wmo:42047:1,2013-04-05T01:30:00Z,27.8966,-93.5973,-2.0,22.32,11111222 
TABS,ioos:station:wmo:42047:1,2013-04-05T02:00:00Z,27.8966,-93.5973,-2.0,22.3,11111222 
TABS,ioos:station:wmo:42047:1,2013-04-05T02:30:00Z,27.8966,-93.5973,-2.0,22.28,11111222 
TABS,ioos:station:wmo:42047:1,2013-04-05T03:00:00Z,27.8966,-93.5973,-2.0,22.26,11111222 
TABS,ioos:station:wmo:42047:1,2013-04-05T03:30:00Z,27.8966,-93.5973,-2.0,22.23,11111222 
TABS,ioos:station:wmo:42047:1,2013-04-05T04:00:00Z,27.8966,-93.5973,-2.0,22.22,11111222 
TABS,ioos:station:wmo:42047:1,2013-04-05T04:30:00Z,27.8966,-93.5973,-2.0,22.2,11111222 
TABS,ioos:station:wmo:42047:1,2013-04-05T05:00:00Z,27.8966,-93.5973,-2.0,22.17,11111222 
TABS,ioos:station:wmo:42047:1,2013-04-05T05:30:00Z,27.8966,-93.5973,-2.0,22.16,11111222 
TABS,ioos:station:wmo:42047:1,2013-04-05T06:00:00Z,27.8966,-93.5973,-2.0,22.12,11111222 
TABS,ioos:station:wmo:42047:1,2013-04-05T06:30:00Z,27.8966,-93.5973,-2.0,22.12,11111222 
TABS,ioos:station:wmo:42047:1,2013-04-05T07:00:00Z,27.8966,-93.5973,-2.0,22.11,11111222 
TABS,ioos:station:wmo:42047:1,2013-04-05T07:30:00Z,27.8966,-93.5973,-2.0,22.1,11111222 
TABS,ioos:station:wmo:42047:1,2013-04-05T08:00:00Z,27.8966,-93.5973,-2.0,22.08,11111222 
TABS,ioos:station:wmo:42047:1,2013-04-05T08:30:00Z,27.8966,-93.5973,-2.0,22.06,11111222 
TABS,ioos:station:wmo:42047:1,2013-04-05T09:00:00Z,27.8966,-93.5973,-2.0,22.06,11111222 
TABS,ioos:station:wmo:42047:1,2013-04-05T09:30:00Z,27.8966,-93.5973,-2.0,22.08,11111222 
TABS,ioos:station:wmo:42047:1,2013-04-05T10:00:00Z,27.8966,-93.5973,-2.0,22.06,11111222 
TABS,ioos:station:wmo:42047:1,2013-04-05T10:30:00Z,27.8966,-93.5973,-2.0,22.05,11111222 
TABS,ioos:station:wmo:42047:1,2013-04-05T11:00:00Z,27.8966,-93.5973,-2.0,21.97,11111222 
TABS,ioos:station:wmo:42047:1,2013-04-05T11:30:00Z,27.8966,-93.5973,-2.0,21.9,11111222 
TABS,ioos:station:wmo:42047:1,2013-04-05T12:00:00Z,27.8966,-93.5973,-2.0,21.83,11111222 
TABS,ioos:station:wmo:42047:1,2013-04-05T12:30:00Z,27.8966,-93.5973,-2.0,21.77,11111222 
TABS,ioos:station:wmo:42047:1,2013-04-05T13:00:00Z,27.8966,-93.5973,-2.0,21.71,11111222 
TABS,ioos:station:wmo:42047:1,2013-04-05T13:30:00Z,27.8966,-93.5973,-2.0,21.58,11111222 
TABS,ioos:station:wmo:42047:1,2013-04-05T14:00:00Z,27.8966,-93.5973,-2.0,21.56,11111222 
TABS,ioos:station:wmo:42047:1,2013-04-05T14:30:00Z,27.8966,-93.5973,-2.0,21.55,11111222 
TABS,ioos:station:wmo:42047:1,2013-04-05T15:00:00Z,27.8966,-93.5973,-2.0,21.53,11111222 
TABS,ioos:station:wmo:42047:1,2013-04-05T15:30:00Z,27.8966,-93.5973,-2.0,21.5,11111222 
TABS,ioos:station:wmo:42047:1,2013-04-05T16:00:00Z,27.8966,-93.5973,-2.0,21.46,11111222 
TABS,ioos:station:wmo:42047:1,2013-04-05T16:30:00Z,27.8966,-93.5973,-2.0,21.45,11111222 
TABS,ioos:station:wmo:42047:1,2013-04-05T17:00:00Z,27.8966,-93.5973,-2.0,21.44,11111222 
TABS,ioos:station:wmo:42047:1,2013-04-05T17:30:00Z,27.8966,-93.5973,-2.0,21.47,11111222 
TABS,ioos:station:wmo:42047:1,2013-04-05T18:00:00Z,27.8966,-93.5973,-2.0,21.49,11111222 
TABS,ioos:station:wmo:42047:1,2013-04-05T18:30:00Z,27.8966,-93.5973,-2.0,21.49,11111222 
TABS,ioos:station:wmo:42047:1,2013-04-05T19:00:00Z,27.8966,-93.5973,-2.0,21.48,11111222 
TABS,ioos:station:wmo:42047:1,2013-04-05T19:30:00Z,27.8966,-93.5973,-2.0,21.47,11111222 
TABS,ioos:station:wmo:42047:1,2013-04-05T20:00:00Z,27.8966,-93.5973,-2.0,21.47,11111222 
TABS,ioos:station:wmo:42047:1,2013-04-05T20:30:00Z,27.8966,-93.5973,-2.0,21.43,11111222 
TABS,ioos:station:wmo:42047:1,2013-04-05T21:00:00Z,27.8966,-93.5973,-2.0,21.41,11111222 
TABS,ioos:station:wmo:42047:1,2013-04-05T21:30:00Z,27.8966,-93.5973,-2.0,21.42,11111222 
TABS,ioos:station:wmo:42047:1,2013-04-05T22:00:00Z,27.8966,-93.5973,-2.0,21.38,11111222 
TABS,ioos:station:wmo:42047:1,2013-04-05T22:30:00Z,27.8966,-93.5973,-2.0,21.29,11111222 
TABS,ioos:station:wmo:42047:1,2013-04-05T23:00:00Z,27.8966,-93.5973,-2.0,21.05,11111222 
TABS,ioos:station:wmo:42047:1,2013-04-05T23:30:00Z,27.8966,-93.5973,-2.0,20.95,11111222 
TABS,ioos:station:wmo:42047:1,2013-04-06T00:00:00Z,27.8966,-93.5973,-2.0,20.93,11111222 
TABS,ioos:station:wmo:42047:1,2013-04-06T00:30:00Z,27.8966,-93.5973,-2.0,20.97,11111222 
TABS,ioos:station:wmo:42047:1,2013-04-06T01:00:00Z,27.8966,-93.5973,-2.0,20.93,11111222 
TABS,ioos:station:wmo:42047:1,2013-04-06T01:30:00Z,27.8966,-93.5973,-2.0,20.77,11111222 
TABS,ioos:station:wmo:42047:1,2013-04-06T02:00:00Z,27.8966,-93.5973,-2.0,20.74,11111222 
TABS,ioos:station:wmo:42047:1,2013-04-06T02:30:00Z,27.8966,-93.5973,-2.0,20.7,11111222 
TABS,ioos:station:wmo:42047:1,2013-04-06T03:00:00Z,27.8966,-93.5973,-2.0,20.64,11111222 
TABS,ioos:station:wmo:42047:1,2013-04-06T03:30:00Z,27.8966,-93.5973,-2.0,20.65,11111222 
TABS,ioos:station:wmo:42047:1,2013-04-06T04:00:00Z,27.8966,-93.5973,-2.0,20.64,11111222 
TABS,ioos:station:wmo:42047:1,2013-04-06T04:30:00Z,27.8966,-93.5973,-2.0,20.61,11111222 
TABS,ioos:station:wmo:42047:1,2013-04-06T05:00:00Z,27.8966,-93.5973,-2.0,20.59,11111222 
TABS,ioos:station:wmo:42047:1,2013-04-06T05:30:00Z,27.8966,-93.5973,-2.0,20.57,11111222 
TABS,ioos:station:wmo:42047:1,2013-04-06T06:00:00Z,27.8966,-93.5973,-2.0,20.56,11111222 
TABS,ioos:station:wmo:42047:1,2013-04-06T06:30:00Z,27.8966,-93.5973,-2.0,20.57,11111222 
TABS,ioos:station:wmo:42047:1,2013-04-06T07:00:00Z,27.8966,-93.5973,-2.0,20.57,11111222 
TABS,ioos:station:wmo:42047:1,2013-04-06T07:30:00Z,27.8966,-93.5973,-2.0,20.53,11111222 
TABS,ioos:station:wmo:42047:1,2013-04-06T08:00:00Z,27.8966,-93.5973,-2.0,20.47,11111222 
TABS,ioos:station:wmo:42047:1,2013-04-06T08:30:00Z,27.8966,-93.5973,-2.0,20.45,11111222 
TABS,ioos:station:wmo:42047:1,2013-04-06T09:00:00Z,27.8966,-93.5973,-2.0,20.43,11111222 
TABS,ioos:station:wmo:42047:1,2013-04-06T09:30:00Z,27.8966,-93.5973,-2.0,20.44,11111222 
TABS,ioos:station:wmo:42047:1,2013-04-06T10:00:00Z,27.8966,-93.5973,-2.0,20.49,11111222 
TABS,ioos:station:wmo:42047:1,2013-04-06T10:30:00Z,27.8966,-93.5973,-2.0,20.57,11111222 
TABS,ioos:station:wmo:42047:1,2013-04-06T11:00:00Z,27.8966,-93.5973,-2.0,20.62,11111222 
TABS,ioos:station:wmo:42047:1,2013-04-06T11:30:00Z,27.8966,-93.5973,-2.0,20.65,11111222 
TABS,ioos:station:wmo:42047:1,2013-04-06T12:00:00Z,27.8966,-93.5973,-2.0,20.66,11111222 
TABS,ioos:station:wmo:42047:1,2013-04-06T12:30:00Z,27.8966,-93.5973,-2.0,20.66,11111222 
TABS,ioos:station:wmo:42047:1,2013-04-06T13:00:00Z,27.8966,-93.5973,-2.0,20.65,11111222 
TABS,ioos:station:wmo:42047:1,2013-04-06T13:30:00Z,27.8966,-93.5973,-2.0,20.68,11111222 
TABS,ioos:station:wmo:42047:1,2013-04-06T14:00:00Z,27.8966,-93.5973,-2.0,20.74,11111222 
TABS,ioos:station:wmo:42047:1,2013-04-06T14:30:00Z,27.8966,-93.5973,-2.0,20.8,11111222 
TABS,ioos:station:wmo:42047:1,2013-04-06T15:00:00Z,27.8966,-93.5973,-2.0,20.84,11111222 
TABS,ioos:station:wmo:42047:1,2013-04-06T15:30:00Z,27.8966,-93.5973,-2.0,20.88,11111222 
TABS,ioos:station:wmo:42047:1,2013-04-06T16:00:00Z,27.8966,-93.5973,-2.0,20.89,11111222 
TABS,ioos:station:wmo:42047:1,2013-04-06T16:30:00Z,27.8966,-93.5973,-2.0,20.87,11111222 
TABS,ioos:station:wmo:42047:1,2013-04-06T17:00:00Z,27.8966,-93.5973,-2.0,20.82,11111222 
TABS,ioos:station:wmo:42047:1,2013-04-06T17:30:00Z,27.8966,-93.5973,-2.0,20.83,11111222 
TABS,ioos:station:wmo:42047:1,2013-04-06T18:00:00Z,27.8966,-93.5973,-2.0,20.8,11111222 
TABS,ioos:station:wmo:42047:1,2013-04-06T18:30:00Z,27.8966,-93.5973,-2.0,20.78,11111222 
TABS,ioos:station:wmo:42047:1,2013-04-06T19:00:00Z,27.8966,-93.5973,-2.0,20.75,11111222 
TABS,ioos:station:wmo:42047:1,2013-04-06T19:30:00Z,27.8966,-93.5973,-2.0,20.7,11111222 
TABS,ioos:station:wmo:42047:1,2013-04-06T20:00:00Z,27.8966,-93.5973,-2.0,20.68,11111222 
TABS,ioos:station:wmo:42047:1,2013-04-06T20:30:00Z,27.8966,-93.5973,-2.0,20.71,11111222 
TABS,ioos:station:wmo:42047:1,2013-04-06T21:00:00Z,27.8966,-93.5973,-2.0,20.7,11111222 
TABS,ioos:station:wmo:42047:1,2013-04-06T21:30:00Z,27.8966,-93.5973,-2.0,20.7,11111222 
TABS,ioos:station:wmo:42047:1,2013-04-06T22:00:00Z,27.8966,-93.5973,-2.0,20.7,11111222 
TABS,ioos:station:wmo:42047:1,2013-04-06T22:30:00Z,27.8966,-93.5973,-2.0,20.72,11111222 
TABS,ioos:station:wmo:42047:1,2013-04-06T23:00:00Z,27.8966,-93.5973,-2.0,20.75,11111222 
TABS,ioos:station:wmo:42047:1,2013-04-06T23:30:00Z,27.8966,-93.5973,-2.0,20.76,11111222 
TABS,ioos:station:wmo:42047:1,2013-04-07T00:00:00Z,27.8966,-93.5973,-2.0,20.75,11111222 
TABS,ioos:station:wmo:42047:1,2013-04-07T00:30:00Z,27.8966,-93.5973,-2.0,20.75,11111222 
TABS,ioos:station:wmo:42047:1,2013-04-07T01:00:00Z,27.8966,-93.5973,-2.0,20.73,11111222 
TABS,ioos:station:wmo:42047:1,2013-04-07T01:30:00Z,27.8966,-93.5973,-2.0,20.71,11111222 
TABS,ioos:station:wmo:42047:1,2013-04-07T02:00:00Z,27.8966,-93.5973,-2.0,20.71,11111222 